Flag for Germany Weather past 2 weeks in Ingolstadt, Bavaria, Germany

Now
59 °F

Cool.


Feels Like: 59 °F
Forecast: 58 / 73 °F
Wind: No wind

Location: Ingolstadt Airport

Current Time: Sep 19, 2014 at 4:06:22 AM

Latest Report: Sep 19, 2014 at 3:20 AM


Visibility: 0 mi

Pressure: 29.95 "Hg

Humidity: 94%

Dew point: 57 °F

Location of IngolstadtLocation

Historic Weather in Ingolstadt — Graph

°F

Ingolstadt temperature yesterday

Maximum temperature yesterday: 72 °F (at 2:20 PM)
Minimum temperature yesterday: 52 °F (at 5:20 AM)
Average temperature yesterday: 62 °F

Past Weeks' High & Low Weather Summary

 TemperatureHumidityPressure
High79 °F (Sep 7, 5:20 PM)100% (Sep 5, 4:20 AM)30.12 "Hg (Sep 5, 4:20 AM)
Low48 °F (Sep 10, 4:20 AM)45% (Sep 7, 5:20 PM)29.89 "Hg (Sep 6, 4:20 PM)
Average61 °F85%30.00 "Hg
* Reported Sep 4 2:20 AM — Sep 19 2:20 AM, Ingolstadt, Weather by CustomWeather, © 2014

Note: Actual official high and low records may vary slightly from our data, if they occured in-between our weather recording intervals... More about our weather records

Advertising

Ingolstadt weather history for previous 24 hours

 ConditionsComfort  
Time TempWeatherWind HumidityBarometerVisibility
2:20 AM
Sep 19
59 °FCool.5 mph100%29.95 "Hg0 mi
1:20 AM61 °FCool.3 mph100%29.95 "Hg2 mi
12:20 AM61 °FPassing clouds.No wind100%29.95 "HgN/A
11:20 PM
Sep 18
63 °FLight rain. Passing clouds.2 mph94%29.95 "HgN/A
10:20 PM63 °FMild.6 mph88%29.98 "Hg3 mi
9:20 PM63 °FPartly cloudy.1 mph88%29.95 "HgN/A
8:20 PM64 °FBroken clouds.3 mph83%29.92 "HgN/A
7:20 PM68 °FPartly sunny.2 mph73%29.92 "HgN/A
6:20 PM72 °FBroken clouds.3 mph65%29.92 "HgN/A
5:20 PM72 °FBroken clouds.7 mph65%29.92 "HgN/A
5:00 PM72 °FPartly sunny.5 mph65%29.92 "HgN/A
4:20 PM72 °FPartly sunny.5 mph65%29.92 "HgN/A
3:20 PM72 °FPartly sunny.5 mph65%29.92 "HgN/A
2:20 PM72 °FScattered clouds.3 mph65%29.92 "HgN/A
1:20 PM70 °FScattered clouds.6 mph73%29.92 "HgN/A
12:20 PM68 °FScattered clouds.3 mph69%29.92 "HgN/A
11:20 AM66 °FPassing clouds.2 mph68%29.95 "HgN/A
10:20 AM61 °FScattered clouds.6 mph77%29.95 "HgN/A
9:20 AM57 °FScattered clouds.5 mph82%29.95 "HgN/A
8:20 AM54 °FPartly sunny.3 mph94%29.92 "HgN/A
7:20 AM52 °FFog.2 mph94%29.92 "HgN/A
6:20 AM52 °FFog.3 mph94%29.92 "HgN/A
5:20 AM52 °FFog.1 mph94%29.92 "HgN/A
4:20 AM54 °FCool.3 mph94%29.92 "Hg1 mi
Weather by CustomWeather, © 2014

See weather overviewHow to use our weather pages